Regional Weather Roundup
Issued by NWS Wakefield, VA

Home | Current Version | Previous Version | Graphics & Text | Print | Product List | Glossary On
Versions: 1 2 3 4 5 6 7 8 9 10 11 12 13 14 15 16 17 18 19 20 21 22 23 24 25 26 27
000
ASUS41 KAKQ 172215
RWRAKQ

REGIONAL WEATHER ROUNDUP
NATIONAL WEATHER SERVICE WAKEFIELD VA
500 PM EST TUE JAN 17 2017

Note: "fair" indicates few or no clouds below 12,000 feet with no
significant weather and/or obstructions to visibility. * = Denotes
station may not report precipitation (e.g., rain,snow,etc.),
thunder or fog.

VAZ042-051-052>054-056-172300-
NORTHERN VIRGINIA

CITY           SKY/WX    TMP DP  RH WIND       PRES   REMARKS
WASH NATIONAL  CLOUDY    49  49 100 S6        29.99S FOG
DULLES         FOG       48  46  93 S5        29.97F VSB 1/2
FORT BELVOIR   CLOUDY    48  46  93 CALM      29.98F FOG
QUANTICO       FOG       48  48 100 SW8       30.00S VSB 3/4
FREDERICKSBRG* CLOUDY    55  55 100 SW12      29.99F
STAFFORD*      CLOUDY    52  52 100 S6        30.02F FOG
WARRENTON      CLOUDY    52  49  87 SW8       29.97F FOG
CULPEPER*      CLOUDY    53  51  95 SW7       29.99S
MANASSAS*      CLOUDY   N/A N/A N/A SW6       29.98  FOG
LEESBURG*      CLOUDY    48  48 100 S3        29.97F FOG
WINCHESTER     CLOUDY    45  45 100 CALM      29.93S FOG
FRONT ROYAL*   FAIR      48  46  93 CALM      29.91S
LURAY*         MOCLDY    59  54  82 SW10      29.94S
$$

VAZ048-049-060>072-079>083-172300-
CENTRAL AND SOUTH CENTRAL VIRGINIA

CITY           SKY/WX    TMP DP  RH WIND       PRES   REMARKS
RICHMOND       CLOUDY    56  52  86 SW10      30.04S
CHESTERFIELD*  FAIR      57  39  51 SW7       30.06R
PETERSBURG*    CLOUDY    55  52  88 SW3       30.06R
HANOVER        CLOUDY    58  51  78 SW12      30.05R
TAPPAHANNOCK*  CLOUDY    57  49  75 S9        30.03R
QUINTON*       MOCLDY    56  54  92 SW9G17    30.04S
CHARLOTTSVILLE MOCLDY    54  51  90 S8        29.98F FOG
GORDONSVILLE*  CLOUDY    53  52  97 SW12      29.99F
ORANGE*          N/A     54  54 100 S12G17    30.01F
LOUISA*        CLOUDY    57  55  94 S6        29.99F
BUMPASS*       CLOUDY    55  54  96 SW9       30.01F
FARMVILLE*     CLOUDY    57  55  92 SW7       30.03S
CREWE*         MOCLDY    56  56 100 S5        30.04S
FORT PICKETT*  CLOUDY    56  53  88 SW13      30.05S
CHASE CITY*    MOCLDY    56  55  95 CALM      30.06F
CLARKSVILLE*   CLOUDY    55  55 100 SW7       30.07S
SOUTH HILL*    CLOUDY    56  54  91 S9        30.12R
LAWRENCEVILLE* CLOUDY    56  54  94 SW5       30.07S
EMPORIA*       LGT RAIN  55  54  94 SE3       30.09S
$$

VAZ088>098-172300-
SOUTHEAST VIRGINIA

CITY           SKY/WX    TMP DP  RH WIND       PRES   REMARKS
NORFOLK        CLOUDY    58  53  84 SW15      30.06F
VIRGINIA BEACH CLOUDY    57  52  83 SW10      30.06F
NORFOLK NAVAL  CLOUDY    59  52  77 S8        30.07F
WEST POINT*    CLOUDY    55  51  83 S7        30.06S
SALUDA*        CLOUDY    56  53  88 S8        30.03S
NEWPORT NEWS   MOCLDY    57  52  83 S8        30.05F
LANGLEY AFB    MOCLDY    58  54  88 S13       30.04F
FORT EUSTIS    CLOUDY    56  52  84 S5        30.02F
WILLIAMSBURG*  CLOUDY    57  54  88 S6        30.05F
HR EXEC AP*    FAIR      57  52  82 SW7       30.06S
FRANKLIN*      MOCLDY    57  54  89 S8        30.07F
US460-WAKEFLD  MOCLDY    57  54  89 SW9       30.06S
$$

VAZ020-022-025-037-045-172300-
WEST CENTRAL AND SOUTHWEST VIRGINIA

CITY           SKY/WX    TMP DP  RH WIND       PRES   REMARKS
STAUNTON*      CLOUDY    56  51  82 S6        29.97F
WAYNESBORO*    MOCLDY    58  50  74 SW12G17   29.97F
HOT SPRINGS VA FOG       52  52 100 W25G31    29.99F VSB 1
LYNCHBURG      CLOUDY    53  51  93 SW13      30.05F
DANVILLE       CLOUDY    55  55 100 SW6       30.07F
SOUTH BOSTON*  CLOUDY    56  55  96 SW8       30.06F
MARTINSVILLE   CLOUDY    52  51  95 W3        30.09F FOG
ROANOKE        CLOUDY    52  51  97 S3        30.05S
BLACKSBURG     CLOUDY    55  52  91 CALM      30.06F
DUBLIN*        CLOUDY    56  54  94 SW6       30.04F
MARION*        CLOUDY    55  54  96 W10       30.07S FOG
HILLSVILLE*    CLOUDY    53  51  94 CALM      30.05S
RICHLANDS*     CLOUDY   N/A N/A N/A SW9G22    30.04R
WISE*          LGT RAIN  57  57 100 SW13      30.04R
ABINGDON*      CLOUDY    57  57  99 W5        30.05S
$$

MDZ021>025-VAZ099-100-172300-
SOUTHERN MARYLAND AND THE DELMARVA PENINSULA

CITY           SKY/WX    TMP DP  RH WIND       PRES   REMARKS
PATUXENT RIVER CLOUDY    44  43  96 CALM      30.01F FOG
BAY BRIDGE APT CLOUDY    45  45 100 SE9       29.99F FOG
LEONARDTOWN    CLOUDY    46  45  93 CALM      30.01F
DOVER          LGT RAIN  44  44 100 E5        30.02R FOG
GEORGETOWN     CLOUDY    49  47  93 S5        30.03F FOG
EASTON         NOT AVBL
CAMBRIDGE      CLOUDY    46  45  93 S7        30.00F
SALISBURY      LGT RAIN  53  50  89 S8        30.02F
OCEAN CITY     CLOUDY    47  47 100 SW8       30.05S
WALLOPS ISLAND LGT RAIN  48  48 100 S10       30.05F
ACCOMACK*      CLOUDY    51  49  93 S7        30.04F
$$

NCZ012>017-030>032-172300-
NORTH CENTRAL AND EASTERN NORTH CAROLINA

CITY           SKY/WX    TMP DP  RH WIND       PRES   REMARKS
ROANOKE RAPIDS FAIR      59  54  82 S9        30.08S
RALEIGH        LGT RAIN  59  56  89 S8        30.10F
ELIZABETH CITY CLOUDY    58  54  86 S9        30.10F
AHOSKIE*       MOCLDY    57  53  86 SW3       30.10R
EDENTON*       CLOUDY    60  55  82 SW3       30.12S
CURRITUCK*     CLOUDY    56  56  97 S5        30.10F
KILL DEVIL HLS NOT AVBL
MANTEO         CLOUDY    53  49  87 S9        30.12F
CAPE HATTERAS  PTCLDY    57  48  72 CALM      30.15S
TARBORO*       NOT AVBL
GOLDSBORO      MOCLDY    62  59  88 S5        30.13S
WASHINGTON     CLOUDY    62  55  78 SW5       30.14S
GREENVILLE     CLOUDY    63  55  77 SW6       30.15S
NEW BERN       PTCLDY    67  56  67 SW8       30.16R
WILMINGTON     CLOUDY    68  57  68 W6        30.17R
$$

VAZ048-172300-
ELSEWHERE

CITY           SKY/WX    TMP DP  RH WIND       PRES   REMARKS
HARRISBURG PA  CLOUDY    41  41 100 E3        29.99S FOG
BALTIMORE      CLOUDY    44  44 100 E5        29.98F FOG
ANNAPOLIS      CLOUDY    43  41  93 SE6       29.99F FOG
ANDREWS AFB    CLOUDY    48  46  93 S6        29.98S FOG
PHILADELPHIA   CLOUDY    45  42  89 SE8       30.03F
HENDERSON NC   DRIZZLE   54  52  93 S9        30.08F
GREENSBORO     LGT RAIN  56  56 100 SW6       30.08F FOG
ROCKY MOUNT    LGT RAIN  57  54  89 S8        30.12F
$$

VAZ100-172300-
MARINE

STATION/POSITION TIME  TEMP    WIND        PRES    WAVE   SWELL
                       AIR SEA DIR/SP/G            HT/PER HT/PER
                 (UTC) (F)     (DEG/KT/KT) (MB)    (FT/S) (FT/S)
CAPE MAY NJ      2148   44 40  150/  9/ 12 1016.9F
LEWES DE         2148      41  140/  5/  6 1016.9F
OCEAN-CITY-INLET 2136   46 42  230/ 12/ 16 1017.7F
WACHAPREAGUE VA  2142   48 47  210/  7/  8 1017.5F
THOMAS POINT MD  2200   41 38  190/  5/  5   N/A
GOOSES REEF MD   2200   41     190/  8/ 10 1016.4    1/ 2
COVE POINT MD    2142   41     180/  6/  7 1016.8F
SOLOMONS ISLAND  2142   42 41  100/  5/  6   N/A
BISHOPS HEAD MD  2148   42 42  160/ 10/ 11 1016.6F
PINEY POINT MD   2142          170/  4/  5   N/A
POTOMAC MD       2200   43 40  180/  4/  6 1015.6    1/ 2
CAMBRIDGE MD     2148   47 39  140/  5/  7 1015.3F
LEWISETTA VA     2142   56 42  230/  8/ 10 1015.9F
RAPPAHANNOCK LGT 2142          180/ 15/ 16 1017.7F
STINGRAY PT      2150   46     190/  8/  8 1017.4F
YORK RVR RNG VA  2142   55     220/ 13/ 13 1016.7F
YORKTOWN VA      2142   57 42  210/ 10/ 13 1016.9F
JAMESTOWN VA     2200   55 45  200/  6/ 10   N/A     0
DOMINION TERM VA 2142   51     200/  6/  7 1017.9F
KIPTOPEKE VA     2142      42  210/ 10/ 11   N/A
CHES BAY BRIDGE  2142   56 43  210/ 14/ 16 1017.5F
CAPE HENRY VA    2142   58     190/  8/ 13   N/A
WILLOUBY STN VA  2142   57     200/ 12/ 14 1018.6F
S CRANEY ISL VA  2142   56     200/  8/ 11 1018.0F
CAPE HENRY BUOY  2142      47                N/A     2/ 3
OFFSHORE WE BUOY 2151      49                N/A     3/ 8
64NM E OF VA BCH 2150   56 56  200/ 10/ 12 1019.2F   2/ 9   2/ 9
DUCK PIER NC     2142   57 44  210/  9/ 11 1018.8F
44100 DUCK FRF   2105      47                N/A     2/ 8
44056 DUCK FRF   2130      45                N/A     1/10
OREGON INLET NC  2142   51 48  180/ 11/ 13 1019.9F
HATTERAS NC      2142   55 53     CALM     1020.5F
DIAMOND SHLS NC  2150   70 73  230/ 16/ 17 1020.8F   2/ 9   2/ 9
CAPE LOOKOUT NC  2100   65     210/  8/ 10 1020.8F
$$




USA.gov is the U.S. government's official web portal to all federal, state and local government web resources and services.